Skip Page Navigation
NASA JPL Caltech
NASA Logo - Jet Propulsion Laboratory + View the NASA Portal
+ Center for Near-Earth Object Studies
JPL Home Earth Solar System Stars & Galaxies Technology
JPL Solar System Dynamics
BODIES ORBITS EPHEMERIDES TOOLS PHYSICAL DATA DISCOVERY FAQ SITE MAP
JPL Small-Body Database Browser
Search: [ help ]  
173759 (2001 RG106)
Classification: Main-belt Asteroid          SPK-ID: 2173759
Ephemeris | Orbit Diagram | Orbital Elements | Mission Design | Physical Parameters | Discovery Circumstances | Close-Approach Data ]

[ hide orbit diagram ]

For accurate long-term ephemerides, please instead use our Horizons system.This orbit viewer was implemented using two-body methods, and hence should not be used for determining accurate long-term trajectories (over several years or decades) or planetary encounter circumstances.


Orbital Elements at Epoch 2459200.5 (2020-Dec-17.0) TDB
Reference: JPL 17 (heliocentric ecliptic J2000)
 Element Value Uncertainty (1-sigma)   Units 
e .04724879178076948 4.8101e-08  
a 2.862145901992961 2.2396e-08 au
q 2.726912966223513 1.3203e-07 au
i 2.261400527897203 5.2287e-06 deg
node 359.9635479330589 0.00010394 deg
peri 218.0423335440341 0.00012132 deg
M 111.2768585961441 5.9192e-05 deg
tp 2458653.813390988551
(2019-Jun-19.31339099)
0.00029233 TDB
period 1768.626304939032
4.84
2.0759e-05
5.684e-08
d
yr
n .2035478037359677 2.3891e-09 deg/d
Q 2.99737883776241 2.3454e-08 au
  Orbit Determination Parameters
   # obs. used (total)      373  
   data-arc span      7005 days (19.18 yr)  
   first obs. used      2001-08-16  
   last obs. used      2020-10-20  
   planetary ephem.      DE441  
   SB-pert. ephem.      SB441-N16  
   condition code      0  
   norm. resid. RMS      .58373  
   source      ORB  
   producer      Otto Matic  
   solution date      2021-Apr-13 20:58:26  

Additional Information
 Earth MOID = 1.71843 au 
 Jupiter MOID = 1.97001 au 
 T_jup = 3.298 
[ hide covariance matrix ]
Orbital Elements at Epoch 2457716.5 (2016-Nov-24.0) TDB
Reference: JPL 17 (heliocentric ecliptic J2000)
 Element Value Uncertainty (1-sigma)   Units 
e .04480088551704962 4.8091e-08  
q 2.734207095051354 1.3148e-07 au
tp 2456886.341783963954
(2014-Aug-16.84178396)
0.00031459 TDB
node .1471475021234472 0.00010403 deg
peri 218.2574834041908 0.00012314 deg
i 2.260609625280653 5.2248e-06 deg
  Orbit Determination Parameters
   # obs. used (total)      373  
   data-arc span      7005 days (19.18 yr)  
   first obs. used      2001-08-16  
   last obs. used      2020-10-20  
   planetary ephem.      DE441  
   SB-pert. ephem.      SB441-N16  
   condition code      0  
   norm. resid. RMS      .58373  
   source      ORB  
   producer      Otto Matic  
   solution date      2021-Apr-13 20:58:26  

Additional Information
 Jupiter MOID = 1.97001 au 
 T_jup = 3.298 
Orbit Covariance (6×6)
  e q tp node peri i
e 2.312786312902757E-15 -6.25103836062615E-15 -7.084196722443093E-12 7.767738855518393E-15 -1.504918643260215E-12 3.999652984029698E-16
q -6.25103836062615E-15 1.728774553701369E-14 1.814944404504477E-11 -2.050821643705526E-14 3.893028195734137E-12 -7.359130153206406E-16
tp -7.084196722443093E-12 1.814944404504477E-11 9.896403766871206E-8 -7.987147034119384E-11 2.07356634224406E-8 -6.955411839545468E-12
node 7.767738855518393E-15 -2.050821643705526E-14 -7.987147034119384E-11 1.082179919109838E-8 -1.082966727413643E-8 -2.978999076421845E-11
peri -1.504918643260215E-12 3.893028195734137E-12 2.07356634224406E-8 -1.082966727413643E-8 1.516267459561278E-8 2.83592648478301E-11
i 3.999652984029698E-16 -7.359130153206406E-16 -6.955411839545468E-12 -2.978999076421845E-11 2.83592648478301E-11 2.729826547745826E-11

Ephemeris | Orbit Diagram | Orbital Elements | Mission Design | Physical Parameters | Discovery Circumstances | Close-Approach Data ]

Physical Parameter Table
Parameter Symbol Value Units Sigma Reference Notes
absolute magnitude H 15.74   n/a E2021B55  

173759 (2001 RG106)          Discovered 2001-Sep-12 by LINEAR at Socorro
Reference: 20080122/Numbers.arcLast Updated: 2008-01-28

[ show close-approach data ]
Alternate Designations
 2001 RG106 = 2004 DF58 
Ephemeris | Orbit Diagram | Orbital Elements | Mission Design | Physical Parameters | Discovery Circumstances | Close-Approach Data ]
ABOUT SSD CREDITS/AWARDS PRIVACY/COPYRIGHT GLOSSARY LINKS
FirstGov 2021-Apr-14 09:17 UT
(server date/time)  
NASA Home Page
Site Manager:   Ryan S. Park
Webmaster  Alan B. Chamberlin